| time (UTC) | temp F | wind direction | speed knots | gust knots | rain 1hr in | rain 24hr in | rain mn in | humidity % | barometer mb |
| 20260505004536 | 52 | 309 | 5.2 | 10.4 | 0.00 | 0.00 | 0.00 | 43 | 1012.3 |
| 20260505004027 | 52 | 330 | 5.2 | 10.4 | 0.00 | 0.00 | 0.00 | 43 | 1012.4 |
| 20260505003527 | 52 | 328 | 5.2 | 10.4 | 0.00 | 0.00 | 0.00 | 43 | 1012.3 |
| 20260505003046 | 52 | 317 | 5.2 | 13.9 | 0.00 | 0.00 | 0.00 | 43 | 1012.3 |
| 20260505002529 | 52 | 319 | 6.1 | 13.9 | 0.00 | 0.00 | 0.00 | 43 | 1012.2 |
| 20260505002026 | 52 | 310 | 4.3 | 13.9 | 0.00 | 0.00 | 0.00 | 42 | 1012.1 |
| 20260505001539 | 53 | 327 | 6.1 | 13.9 | 0.00 | 0.00 | 0.00 | 42 | 1012.0 |
| 20260505001025 | 53 | 300 | 6.1 | 13.9 | 0.00 | 0.00 | 0.00 | 42 | 1012.0 |
| 20260505000528 | 53 | 311 | 6.1 | 13.0 | 0.00 | 0.00 | 0.00 | 43 | 1012.0 |
| 20260505000051 | 53 | 262 | 6.1 | 13.0 | 0.00 | 0.00 | 0.00 | 43 | 1011.9 |
| 20260504235527 | 53 | 328 | 7.0 | 13.0 | 0.00 | 0.00 | 0.00 | 42 | 1011.9 |
| 20260504235025 | 53 | 295 | 6.1 | 13.9 | 0.00 | 0.00 | 0.00 | 43 | 1011.8 |
| 20260504234539 | 53 | 305 | 6.1 | 13.9 | 0.00 | 0.00 | 0.00 | 43 | 1011.9 |
| 20260504234026 | 53 | 286 | 6.1 | 13.9 | 0.00 | 0.00 | 0.00 | 43 | 1011.8 |
| 20260504233526 | 53 | 278 | 5.2 | 14.8 | 0.00 | 0.00 | 0.00 | 43 | 1011.6 |
| 20260504233044 | 53 | 356 | 6.1 | 14.8 | 0.00 | 0.00 | 0.00 | 43 | 1011.6 |
| 20260504232522 | 53 | 280 | 6.1 | 12.2 | 0.00 | 0.00 | 0.00 | 43 | 1011.7 |
| 20260504232022 | 53 | 328 | 6.1 | 13.9 | 0.00 | 0.00 | 0.00 | 43 | 1011.6 |
| 20260504231537 | 53 | 316 | 6.1 | 13.9 | 0.00 | 0.00 | 0.00 | 43 | 1011.6 |
| 20260504231022 | 53 | 293 | 6.1 | 13.0 | 0.00 | 0.00 | 0.00 | 43 | 1011.6 |
| 20260504230523 | 53 | 332 | 5.2 | 16.5 | 0.00 | 0.00 | 0.00 | 44 | 1011.8 |
| 20260504230043 | 53 | 322 | 6.1 | 16.5 | 0.00 | 0.00 | 0.00 | 43 | 1011.7 |
| 20260504225523 | 53 | 330 | 7.0 | 15.6 | 0.00 | 0.00 | 0.00 | 41 | 1011.7 |
| 20260504225024 | 54 | 251 | 7.0 | 14.8 | 0.00 | 0.00 | 0.00 | 42 | 1011.6 |
| 20260504224550 | 55 | 331 | 6.1 | 14.8 | 0.00 | 0.00 | 0.00 | 41 | 1011.6 |
| 20260504224025 | 56 | 349 | 6.1 | 16.5 | 0.00 | 0.00 | 0.00 | 40 | 1011.7 |
| 20260504223523 | 56 | 322 | 7.8 | 16.5 | 0.00 | 0.00 | 0.00 | 40 | 1011.7 |
| 20260504223039 | 55 | 2 | 7.8 | 15.6 | 0.00 | 0.00 | 0.00 | 40 | 1011.7 |
| 20260504222522 | 55 | 314 | 7.0 | 13.9 | 0.00 | 0.00 | 0.00 | 41 | 1011.7 |
| 20260504222023 | 55 | 324 | 6.1 | 15.6 | 0.00 | 0.00 | 0.00 | 41 | 1011.8 |
| 20260504221539 | 55 | 341 | 7.8 | 15.6 | 0.00 | 0.00 | 0.00 | 41 | 1011.8 |
| 20260504221028 | 56 | 276 | 5.2 | 17.4 | 0.00 | 0.00 | 0.00 | 41 | 1011.8 |
| 20260504220525 | 56 | 51 | 7.8 | 17.4 | 0.00 | 0.00 | 0.00 | 41 | 1011.8 |
| 20260504220043 | 57 | 352 | 7.8 | 17.4 | 0.00 | 0.00 | 0.00 | 40 | 1011.6 |
| 20260504215524 | 57 | 343 | 7.8 | 16.5 | 0.00 | 0.00 | 0.00 | 41 | 1011.6 |
| 20260504215022 | 57 | 325 | 7.0 | 16.5 | 0.00 | 0.00 | 0.00 | 40 | 1011.3 |
| 20260504214543 | 56 | 359 | 7.8 | 16.5 | 0.00 | 0.00 | 0.00 | 41 | 1011.3 |
| 20260504214022 | 56 | 359 | 6.1 | 16.5 | 0.00 | 0.00 | 0.00 | 40 | 1011.6 |
| 20260504213522 | 57 | 340 | 5.2 | 16.5 | 0.00 | 0.00 | 0.00 | 41 | 1011.6 |
| 20260504213042 | 56 | 359 | 7.0 | 16.5 | 0.00 | 0.00 | 0.00 | 40 | 1011.6 |
| 20260504212524 | 57 | 311 | 8.7 | 18.2 | 0.00 | 0.00 | 0.00 | 40 | 1011.6 |
| 20260504212023 | 58 | 314 | 8.7 | 18.2 | 0.00 | 0.00 | 0.00 | 41 | 1011.7 |
| 20260504211541 | 58 | 346 | 8.7 | 18.2 | 0.00 | 0.00 | 0.00 | 41 | 1011.7 |
| 20260504211022 | 58 | 323 | 6.1 | 13.9 | 0.00 | 0.00 | 0.00 | 41 | 1011.6 |
| 20260504210522 | 58 | 307 | 7.0 | 13.9 | 0.00 | 0.00 | 0.00 | 40 | 1011.5 |
| 20260504210052 | 59 | 327 | 6.1 | 12.2 | 0.00 | 0.00 | 0.00 | 40 | 1011.8 |
| 20260504205525 | 59 | 316 | 7.8 | 16.5 | 0.00 | 0.00 | 0.00 | 40 | 1011.6 |
| 20260504205029 | 58 | 354 | 7.8 | 16.5 | 0.00 | 0.00 | 0.00 | 42 | 1011.7 |
| 20260504204545 | 58 | 334 | 7.8 | 14.8 | 0.00 | 0.00 | 0.00 | 41 | 1011.7 |
| 20260504204021 | 58 | 343 | 7.8 | 14.8 | 0.00 | 0.00 | 0.00 | 41 | 1011.8 |
| 20260504203521 | 59 | 319 | 7.0 | 14.8 | 0.00 | 0.00 | 0.00 | 41 | 1011.8 |
| 20260504203039 | 59 | 303 | 7.0 | 15.6 | 0.00 | 0.00 | 0.00 | 41 | 1011.8 |
| 20260504202527 | 58 | 285 | 7.0 | 16.5 | 0.00 | 0.00 | 0.00 | 43 | 1011.8 |
| 20260504202027 | 59 | 341 | 7.0 | 16.5 | 0.00 | 0.00 | 0.00 | 41 | 1011.9 |
| 20260504201538 | 58 | 28 | 8.7 | 16.5 | 0.00 | 0.00 | 0.00 | 40 | 1011.8 |
| 20260504201029 | 58 | 339 | 7.8 | 15.6 | 0.00 | 0.00 | 0.00 | 43 | 1011.6 |
| 20260504200530 | 58 | 345 | 6.1 | 19.1 | 0.00 | 0.00 | 0.00 | 41 | 1011.6 |
| 20260504200052 | 58 | 345 | 7.8 | 19.1 | 0.00 | 0.00 | 0.00 | 41 | 1011.8 |
| 20260504195524 | 58 | 294 | 7.0 | 12.2 | 0.00 | 0.00 | 0.00 | 42 | 1011.7 |
| 20260504195027 | 58 | 343 | 5.2 | 12.2 | 0.00 | 0.00 | 0.00 | 41 | 1011.9 |
| 20260504194537 | 56 | 332 | 5.2 | 12.2 | 0.00 | 0.00 | 0.00 | 43 | 1011.9 |
| 20260504194028 | 57 | 304 | 6.1 | 13.9 | 0.00 | 0.00 | 0.00 | 42 | 1012.0 |
| 20260504193528 | 56 | 330 | 7.0 | 13.9 | 0.00 | 0.00 | 0.00 | 46 | 1012.0 |
| 20260504193042 | 56 | 340 | 5.2 | 13.9 | 0.00 | 0.00 | 0.00 | 44 | 1012.1 |
| 20260504192524 | 56 | 312 | 7.0 | 13.9 | 0.00 | 0.00 | 0.00 | 43 | 1012.1 |
| 20260504192030 | 56 | 344 | 5.2 | 12.2 | 0.00 | 0.00 | 0.00 | 45 | 1012.2 |
| 20260504191538 | 57 | 335 | 6.1 | 13.0 | 0.00 | 0.00 | 0.00 | 43 | 1012.2 |
| 20260504191027 | 57 | 343 | 4.3 | 13.0 | 0.00 | 0.00 | 0.00 | 44 | 1012.3 |
| 20260504190527 | 57 | 358 | 6.1 | 13.0 | 0.00 | 0.00 | 0.00 | 44 | 1012.4 |
| 20260504190036 | 57 | 357 | 6.1 | 13.0 | 0.00 | 0.00 | 0.00 | 46 | 1012.3 |
| 20260504185526 | 56 | 2 | 6.1 | 13.9 | 0.00 | 0.00 | 0.00 | 44 | 1012.5 |
| 20260504185027 | 57 | 7 | 6.1 | 13.9 | 0.00 | 0.00 | 0.00 | 45 | 1012.5 |
| 20260504184542 | 57 | 342 | 7.8 | 13.9 | 0.00 | 0.00 | 0.00 | 43 | 1012.5 |
| 20260504184031 | 57 | 347 | 5.2 | 12.2 | 0.00 | 0.00 | 0.00 | 45 | 1012.5 |
| 20260504183526 | 56 | 347 | 5.2 | 12.2 | 0.00 | 0.00 | 0.00 | 47 | 1012.6 |
| 20260504183038 | 55 | 331 | 3.5 | 13.0 | 0.00 | 0.00 | 0.00 | 48 | 1012.6 |
| 20260504182526 | 55 | 347 | 7.8 | 15.6 | 0.00 | 0.00 | 0.00 | 47 | 1012.7 |
| 20260504182024 | 55 | 68 | 5.2 | 15.6 | 0.00 | 0.00 | 0.00 | 47 | 1012.7 |
| 20260504181538 | 55 | 42 | 7.0 | 15.6 | 0.00 | 0.00 | 0.00 | 47 | 1012.5 |
| 20260504181027 | 54 | 60 | 7.8 | 15.6 | 0.00 | 0.00 | 0.00 | 48 | 1012.7 |
| 20260504180524 | 55 | 25 | 7.0 | 13.0 | 0.00 | 0.00 | 0.00 | 45 | 1012.8 |
| 20260504180037 | 56 | 72 | 4.3 | 14.8 | 0.00 | 0.00 | 0.00 | 47 | 1012.7 |
| 20260504175526 | 56 | 32 | 7.8 | 14.8 | 0.00 | 0.00 | 0.00 | 46 | 1012.8 |
| 20260504175026 | 56 | 60 | 7.8 | 14.8 | 0.00 | 0.00 | 0.00 | 44 | 1012.6 |
| 20260504174536 | 57 | 4 | 5.2 | 12.2 | 0.00 | 0.00 | 0.00 | 46 | 1012.7 |
| 20260504174027 | 55 | 323 | 7.0 | 12.2 | 0.00 | 0.00 | 0.00 | 44 | 1012.7 |
| 20260504173530 | 56 | 56 | 2.6 | 12.2 | 0.00 | 0.00 | 0.00 | 46 | 1012.6 |
| 20260504173037 | 56 | 18 | 4.3 | 11.3 | 0.00 | 0.00 | 0.00 | 45 | 1012.7 |
| 20260504172524 | 56 | 307 | 4.3 | 9.6 | 0.00 | 0.00 | 0.00 | 46 | 1012.7 |
| 20260504172027 | 55 | 360 | 4.3 | 10.4 | 0.00 | 0.00 | 0.00 | 46 | 1012.8 |
| 20260504171537 | 55 | 55 | 5.2 | 11.3 | 0.00 | 0.00 | 0.00 | 47 | 1012.9 |
| 20260504171027 | 55 | 3 | 3.5 | 11.3 | 0.00 | 0.00 | 0.00 | 46 | 1012.8 |
| 20260504170526 | 55 | 49 | 5.2 | 11.3 | 0.00 | 0.00 | 0.00 | 47 | 1012.9 |
| 20260504151027 | 50 | 60 | 5.2 | 14.8 | 0.00 | 0.00 | 0.00 | 53 | 1013.0 |
| 20260504150525 | 50 | 20 | 5.2 | 14.8 | 0.00 | 0.00 | 0.00 | 53 | 1013.1 |
| 20260504141028 | 48 | 36 | 6.1 | 13.0 | 0.00 | 0.00 | 0.00 | 56 | 1012.6 |
| 20260504140526 | 48 | 359 | 7.0 | 17.4 | 0.00 | 0.00 | 0.00 | 56 | 1012.6 |
| 20260504130524 | 48 | 25 | 2.6 | 7.8 | 0.00 | 0.00 | 0.00 | 52 | 1012.2 |
| 20260504110526 | 50 | 11 | 2.6 | 7.8 | 0.00 | 0.00 | 0.00 | 51 | 1009.1 |
| 20260504100527 | 43 | 24 | 0.0 | 2.6 | 0.00 | 0.00 | 0.00 | 66 | 1008.1 |
| 20260504081540 | 45 | 0 | 0.0 | 0.0 | 0.00 | 0.00 | 0.00 | 61 | 1008.0 |
| 20260504081027 | 46 | 0 | 0.0 | 0.0 | 0.00 | 0.00 | 0.00 | 61 | 1007.9 |
| 20260504080527 | 46 | 0 | 0.0 | 0.0 | 0.00 | 0.00 | 0.00 | 60 | 1008.0 |
| 20260504050527 | 53 | 193 | 0.0 | 1.7 | 0.00 | 0.00 | 0.00 | 44 | 1008.2 |
| 20260504045526 | 53 | 0 | 0.0 | 3.5 | 0.00 | 0.00 | 0.00 | 47 | 1008.3 |
| 20260504045030 | 53 | 193 | 0.9 | 3.5 | 0.00 | 0.00 | 0.00 | 43 | 1008.2 |
| 20260504044537 | 53 | 193 | 1.7 | 3.5 | 0.00 | 0.00 | 0.00 | 42 | 1008.1 |
| 20260504044025 | 53 | 257 | 0.9 | 1.7 | 0.00 | 0.00 | 0.00 | 43 | 1008.0 |
| 20260504043523 | 54 | 257 | 0.9 | 1.7 | 0.00 | 0.00 | 0.00 | 43 | 1008.0 |
| 20260504043058 | 54 | 257 | 0.0 | 1.7 | 0.00 | 0.00 | 0.00 | 41 | 1007.9 |
| 20260504042523 | 55 | 0 | 0.0 | 1.7 | 0.00 | 0.00 | 0.00 | 40 | 1008.0 |
| 20260504042023 | 55 | 257 | 0.0 | 1.7 | 0.00 | 0.00 | 0.00 | 39 | 1007.9 |
| 20260504041538 | 55 | 257 | 0.9 | 1.7 | 0.00 | 0.00 | 0.00 | 39 | 1008.0 |
| 20260504041022 | 55 | 257 | 0.9 | 1.7 | 0.00 | 0.00 | 0.00 | 39 | 1007.9 |
| 20260504040525 | 56 | 257 | 0.9 | 1.7 | 0.00 | 0.00 | 0.00 | 40 | 1008.0 |
| 20260504040042 | 56 | 0 | 0.9 | 1.7 | 0.00 | 0.00 | 0.00 | 38 | 1008.0 |
| 20260504035526 | 57 | 0 | 0.9 | 1.7 | 0.00 | 0.00 | 0.00 | 38 | 1008.0 |
| 20260504035023 | 57 | 0 | 0.0 | 1.7 | 0.00 | 0.00 | 0.00 | 36 | 1008.1 |
| 20260504034546 | 58 | 0 | 0.0 | 0.0 | 0.00 | 0.00 | 0.00 | 35 | 1008.0 |
| 20260504034026 | 58 | 0 | 0.0 | 0.9 | 0.00 | 0.00 | 0.00 | 35 | 1008.0 |
| 20260504033523 | 58 | 0 | 0.0 | 0.9 | 0.00 | 0.00 | 0.00 | 34 | 1007.9 |
| 20260504033043 | 59 | 0 | 0.0 | 0.9 | 0.00 | 0.00 | 0.00 | 36 | 1007.9 |
| 20260504032523 | 60 | 0 | 0.0 | 1.7 | 0.00 | 0.00 | 0.00 | 36 | 1007.9 |
| 20260504032023 | 61 | 0 | 0.0 | 2.6 | 0.00 | 0.00 | 0.00 | 35 | 1007.9 |
| 20260504031549 | 62 | 356 | 0.0 | 2.6 | 0.00 | 0.00 | 0.00 | 37 | 1007.7 |
| 20260504031025 | 62 | 324 | 0.9 | 3.5 | 0.00 | 0.00 | 0.00 | 30 | 1007.8 |
| 20260504030525 | 63 | 352 | 0.9 | 3.5 | 0.00 | 0.00 | 0.00 | 31 | 1007.8 |
| 20260504030055 | 63 | 319 | 1.7 | 3.5 | 0.00 | 0.00 | 0.00 | 29 | 1007.7 |
| 20260504025523 | 63 | 329 | 1.7 | 3.5 | 0.00 | 0.00 | 0.00 | 29 | 1007.7 |
| 20260504025026 | 63 | 327 | 1.7 | 3.5 | 0.00 | 0.00 | 0.00 | 30 | 1007.7 |
| 20260504024540 | 62 | 334 | 0.9 | 3.5 | 0.00 | 0.00 | 0.00 | 30 | 1007.7 |
| 20260504024026 | 62 | 335 | 0.9 | 2.6 | 0.00 | 0.00 | 0.00 | 33 | 1007.6 |
| 20260504023523 | 63 | 0 | 0.0 | 2.6 | 0.00 | 0.00 | 0.00 | 33 | 1007.7 |
| 20260504023038 | 63 | 0 | 0.0 | 2.6 | 0.00 | 0.00 | 0.00 | 34 | 1007.6 |
| 20260504022523 | 64 | 0 | 0.0 | 1.7 | 0.00 | 0.00 | 0.00 | 35 | 1007.6 |
| 20260504022024 | 65 | 0 | 0.0 | 1.7 | 0.00 | 0.00 | 0.00 | 34 | 1007.5 |
| 20260504021545 | 65 | 0 | 0.0 | 0.0 | 0.00 | 0.00 | 0.00 | 33 | 1007.6 |
| 20260504021025 | 66 | 0 | 0.0 | 1.7 | 0.00 | 0.00 | 0.00 | 32 | 1007.6 |
| 20260504020522 | 67 | 0 | 0.0 | 2.6 | 0.00 | 0.00 | 0.00 | 31 | 1007.6 |
| 20260504020039 | 67 | 0 | 0.9 | 2.6 | 0.00 | 0.00 | 0.00 | 32 | 1007.6 |
| 20260504015527 | 69 | 335 | 1.7 | 2.6 | 0.00 | 0.00 | 0.00 | 32 | 1007.5 |
| 20260504015023 | 70 | 238 | 0.9 | 1.7 | 0.00 | 0.00 | 0.00 | 29 | 1007.4 |
| 20260504014540 | 71 | 238 | 0.9 | 1.7 | 0.00 | 0.00 | 0.00 | 27 | 1007.4 |
| 20260504014023 | 72 | 238 | 0.0 | 1.7 | 0.00 | 0.00 | 0.00 | 25 | 1007.5 |
| 20260504013528 | 73 | 238 | 0.0 | 1.7 | 0.00 | 0.00 | 0.00 | 23 | 1007.5 |
| 20260504013044 | 74 | 238 | 0.0 | 1.7 | 0.00 | 0.00 | 0.00 | 23 | 1007.4 |
| 20260504012522 | 74 | 276 | 0.0 | 1.7 | 0.00 | 0.00 | 0.00 | 24 | 1007.5 |
| 20260504012022 | 74 | 0 | 0.0 | 3.5 | 0.00 | 0.00 | 0.00 | 23 | 1007.6 |
| 20260504011543 | 73 | 273 | 0.9 | 3.5 | 0.00 | 0.00 | 0.00 | 23 | 1007.7 |
| 20260504011030 | 73 | 265 | 0.0 | 3.5 | 0.00 | 0.00 | 0.00 | 26 | 1007.8 |
| 20260504010523 | 73 | 277 | 0.9 | 3.5 | 0.00 | 0.00 | 0.00 | 25 | 1007.7 |
| 20260504010053 | 74 | 259 | 0.9 | 3.5 | 0.00 | 0.00 | 0.00 | 24 | 1007.7 |
| 20260504005523 | 74 | 0 | 1.7 | 5.2 | 0.00 | 0.00 | 0.00 | 23 | 1007.8 |
| 20260504005023 | 73 | 250 | 1.7 | 5.2 | 0.00 | 0.00 | 0.00 | 25 | 1007.9 |